Terug naar catalogus

SHIYAN 5

SY-5

ActiefWetenschapSSO
NORAD 39455·PAYLOAD·🇨🇳 China

Gelanceerd Nov 25, 2013 vanaf Jiuquan Satellite Launch Center

Loading…

Volgende Passages (komende 24 uur)

TLE

VersSource: Space-Track

Epoch: Sep 14, 2026, 14:51 UTC

1 39455U 13068A   26257.61922104  .00000200  00000-0  70665-4 0  9991
2 39455  98.0567 124.0988 0015081  35.4868 324.7324 14.43714119674539

Volg SHIYAN 5 in realtime met AllMySat

Download on the App Store